Wind_Speed
17 14 1 19 24 21 27 21 24 15 11 11 15 14 14 14 10 16 13 11 20 14 13 7 28 34 25 28 24 21 17 19 18 21 20 20 23 23 21 19 15 17 18 21
18 16 9 21 31 29 27 22 27 16 13 9 16 16 13 14 15 13 18 14 14 15 12 21 19 20 26 23 27 25 23 21 18 15 19 16 20 22 21 19 19 20 18 16
19 1 7 13 24 27 28 29 15 16 10 10 13 16 16 14 17 18 17 19 12 5 18 16 20 19 23 23 21 26 26 24 18 17 16 14 15 12 18 20 20 20 19 17
19 11 15 14 13 12 4 16 7 15 10 5 9 8 14 13 12 14 17 16 20 15 19 18 20 24 22 22 20 22 22 22 20 19 22 22 20 15 16 15 16 20 18 18
20 15 15 13 4 8 8 29 18 16 14 9 3 4 14 15 13 10 6 12 19 23 16 20 19 19 23 22 21 22 21 19 20 21 20 21 18 17 14 16 16 12 7 8
22 8 18 14 7 14 8 14 20 7 6 7 10 5 12 16 17 16 20 18 15 23 19 18 10 27 26 24 23 22 22 23 21 20 18 19 16 14 14 11 13 11 10 14
20 16 7 4 8 13 8 13 7 11 4 6 10 2 9 22 21 17 18 18 26 19 20 20 17 22 25 24 26 23 22 20 19 19 17 14 13 12 10 9 9 14 14 15
18 12 17 11 18 9 9 12 6 6 5 3 16 8 9 18 22 20 17 16 19 22 22 20 16 21 24 20 24 26 25 21 20 19 17 15 13 10 12 14 14 13 8 8
19 22 18 13 16 11 5 5 14 9 15 6 12 18 21 21 18 23 19 16 16 15 18 17 18 19 21 23 22 24 27 22 21 19 17 15 14 15 15 7 11 10 9 13
25 14 18 16 15 15 21 15 8 6 8 1 11 18 17 20 20 20 21 18 15 19 19 15 15 21 20 20 19 20 27 22 21 20 17 15 14 13 10 7 7 7 6 7
26 13 15 12 14 15 12 8 8 5 6 6 4 14 20 21 20 21 19 19 20 19 17 15 16 23 22 22 20 18 20 19 18 17 20 18 17 19 11 4 5 6 8 8
28 20 18 23 20 18 18 16 19 10 7 7 1 7 22 23 22 21 20 20 19 17 16 15 15 19 20 21 20 17 18 17 17 15 11 10 14 15 12 14 11 9 10 12
23 21 10 11 24 18 15 14 15 4 7 0 4 11 19 21 20 19 20 21 18 17 15 15 13 12 14 16 18 18 16 16 15 13 12 18 16 16 15 13 14 14 14 13
8 20 22 15 23 15 21 19 6 13 5 7 8 17 22 21 21 20 21 21 19 16 13 14 14 11 15 17 16 12 17 18 16 24 23 21 16 16 14 14 14 14 13 13
10 19 24 19 21 27 11 14 13 14 21 3 9 25 22 21 20 20 22 21 18 17 15 14 15 12 17 17 17 19 19 21 21 21 19 21 18 14 14 16 17 17 18 17
17 17 20 24 23 13 9 20 27 16 22 6 25 7 22 20 17 22 20 20 18 17 15 16 16 15 17 17 18 19 20 21 20 21 19 17 16 16 16 16 16 17 17 17
20 16 19 19 15 18 7 26 21 22 26 25 10 7 3 20 20 21 22 20 18 16 18 17 16 17 19 19 21 21 21 21 21 20 19 18 17 18 18 18 18 17 17 17
21 21 15 15 9 8 10 24 28 16 6 18 23 17 9 20 20 21 22 20 17 17 19 17 17 21 22 23 22 23 21 21 21 20 20 19 19 19 18 17 17 16 15 16
21 20 15 15 18 10 22 22 2 3 15 22 19 17 23 19 21 20 21 20 17 20 19 22 25 25 24 25 26 25 22 21 21 20 19 20 18 18 17 16 15 14 14 14
22 15 14 15 21 24 18 19 22 30 9 12 26 10 10 22 16 14 22 23 21 24 25 25 27 28 26 26 27 25 23 22 21 20 20 19 18 17 17 15 14 13 15 16
16 14 16 15 16 20 19 23 25 13 9 10 20 23 18 11 14 20 22 23 25 27 27 29 29 26 27 29 28 25 24 22 23 22 22 21 19 19 17 15 13 14 14 15
20 16 14 14 15 16 19 18 19 8 13 14 25 28 7 23 16 23 22 25 25 22 29 31 27 28 29 29 28 26 24 26 25 24 23 21 20 16 15 15 14 14 14 13
21 19 14 15 13 8 11 13 8 15 6 13 7 29 24 21 17 24 23 24 23 26 30 30 29 29 28 30 29 28 29 29 27 25 23 20 18 18 17 16 15 13 14 14
22 20 17 18 17 21 17 14 12 12 7 16 15 2 17 17 17 23 23 22 21 26 29 33 32 29 29 29 30 30 32 31 28 26 22 21 20 18 16 14 15 9 9 9
14 17 21 17 18 15 19 17 16 13 12 14 14 15 11 16 22 24 22 22 21 29 31 34 32 31 31 32 32 34 33 32 29 26 23 21 19 17 14 8 13 11 9 7
17 16 13 14 15 16 12 15 19 18 14 10 11 9 12 2 24 24 21 20 27 29 33 32 32 33 34 33 34 36 36 33 30 26 23 21 20 18 15 15 17 11 9 7
Wind_Direction
225 240 76 148 139 215 208 225 254 149 178 171 127 147 179 173 193 125 155 202 137 201 132 352 149 144 147 146 157 147 153 149 152 163 158 156 162 168 178 194 238 257 268 276
250 228 176 150 170 191 185 219 244 137 193 92 154 155 174 180 177 180 155 192 169 167 132 189 152 147 142 152 162 165 164 160 169 160 173 181 186 195 209 218 240 256 253 245
244 167 183 167 190 192 192 209 176 147 164 165 181 147 168 192 177 189 174 186 129 172 172 161 140 154 152 153 165 161 168 173 169 181 174 178 185 201 217 230 238 242 239 241
243 241 224 216 234 229 48 321 265 166 136 211 202 154 175 182 182 183 168 171 139 200 159 153 159 153 155 160 170 165 173 176 178 187 191 191 188 201 224 232 240 239 243 232
245 188 244 245 250 49 162 233 258 189 157 141 275 25 177 175 192 184 141 124 186 168 158 158 168 151 144 159 167 165 169 178 184 199 203 199 204 215 218 224 243 240 241 252
257 207 221 226 207 134 183 228 243 196 81 67 283 219 186 175 178 190 165 193 154 146 157 118 234 150 149 157 159 171 177 180 189 192 196 200 208 227 226 228 236 241 254 209
243 229 223 146 239 155 194 215 251 191 67 192 227 284 223 173 170 177 166 150 141 163 145 150 161 163 150 162 159 164 176 181 183 190 200 201 207 208 210 229 244 224 254 226
230 205 229 160 248 190 67 121 121 318 279 165 166 230 222 200 167 150 155 163 159 151 150 160 159 149 151 164 162 165 171 180 186 189 196 203 209 212 222 231 235 258 266 255
221 218 202 192 228 199 28 3 147 123 250 271 177 234 139 154 154 151 159 147 163 151 139 138 141 147 155 165 172 168 167 179 185 189 195 199 208 223 236 259 223 272 304 332
254 231 221 187 211 242 147 173 114 195 243 142 180 153 144 161 154 166 149 154 164 137 133 147 152 153 160 166 170 170 168 179 189 192 191 201 212 224 238 248 255 307 352 347
246 258 296 214 218 211 147 175 186 142 251 162 285 154 144 161 160 154 145 154 139 139 138 151 149 153 166 163 164 170 168 177 189 210 186 196 202 210 205 129 109 59 40 40
231 242 199 261 218 215 246 220 208 220 130 183 103 198 154 164 160 145 156 151 136 139 147 157 141 148 151 156 154 167 174 174 198 185 144 136 103 114 104 79 69 79 73 67
217 233 241 298 303 195 231 246 253 61 98 127 36 133 152 162 158 152 160 131 135 139 145 133 143 130 146 145 155 157 177 153 116 117 112 108 84 85 86 82 83 76 72 70
259 238 232 204 239 248 208 225 225 101 27 267 182 186 157 160 160 163 136 135 134 137 131 144 132 145 118 110 111 135 114 106 115 102 98 94 89 89 87 93 87 85 84 81
253 243 245 207 219 237 299 283 209 133 192 173 237 157 163 159 166 140 134 136 138 136 164 139 129 111 111 110 105 106 104 104 99 99 96 96 102 106 103 99 94 92 89 84
244 251 255 251 239 39 326 291 295 188 150 142 263 312 153 159 152 137 142 141 150 152 154 126 125 134 133 127 121 115 107 107 110 108 107 114 116 111 107 102 100 98 89 84
236 236 240 248 226 132 292 261 274 257 142 154 193 213 256 165 148 147 153 156 154 169 136 133 143 146 141 137 129 114 116 117 115 117 119 121 121 117 112 110 106 97 91 85
221 228 237 241 147 222 225 257 262 273 255 157 153 222 215 162 153 158 158 157 162 144 135 139 147 141 145 143 135 129 127 128 126 125 128 128 124 119 117 111 107 104 100 93
258 217 228 235 244 227 197 235 222 289 263 161 155 171 223 178 161 166 161 156 155 144 138 145 147 148 145 133 130 130 132 132 131 133 133 130 128 127 123 118 114 110 104 95
257 250 224 215 239 233 226 190 227 209 215 132 145 150 228 166 174 166 158 155 151 139 144 150 149 147 139 136 137 136 138 137 134 136 133 133 129 124 119 116 114 112 100 92
234 250 242 227 223 240 236 237 201 206 208 138 128 152 243 200 171 160 162 154 143 143 149 148 146 149 145 145 144 141 141 139 139 136 133 131 131 126 126 124 119 114 111 109
215 225 234 231 231 223 234 245 209 199 194 238 143 135 252 246 174 166 151 140 139 147 148 146 147 143 149 150 148 145 143 141 141 139 136 135 136 133 130 127 130 132 134 139
213 216 225 228 232 248 261 249 224 240 187 187 246 172 183 170 189 145 144 142 144 151 149 150 144 147 154 154 154 146 146 146 144 142 142 145 138 137 143 147 147 157 164 165
214 211 226 236 234 238 254 261 286 292 247 202 175 219 185 174 164 145 141 143 148 152 155 149 151 156 156 161 154 150 150 150 147 147 148 145 144 148 155 162 179 175 150 131
230 200 209 231 238 252 243 250 267 270 286 230 128 103 330 240 154 147 149 151 155 156 158 157 160 162 162 161 155 154 155 152 151 150 152 155 156 164 172 148 118 125 108 117
235 190 200 225 221 233 259 251 252 265 282 208 173 139 277 177 148 148 150 155 158 162 158 160 165 163 163 163 160 158 159 158 154 156 162 163 163 167 151 125 114 116 116 111
Height
710 727 747 762 775 784 793 802 797 739 733 741 751 762 755 747 750 756 769 762 768 777 773 782 781 786 794 798 804 811 808 819 822 827 829 832 835 839 841 841 839 838 839 839
718 727 711 725 746 765 779 792 786 733 729 739 749 759 752 747 751 749 758 760 766 766 775 779 777 781 791 796 802 806 813 816 820 826 829 832 835 837 836 838 837 836 835 835
723 718 699 711 740 749 749 755 733 745 733 733 741 759 757 744 741 742 745 749 760 771 771 770 777 781 788 795 801 806 810 814 819 824 827 828 831 833 834 833 831 831 832 831
709 700 703 706 713 704 763 732 727 728 751 775 737 783 763 750 748 744 743 746 758 763 762 765 774 778 784 792 799 805 809 813 818 821 820 823 824 828 828 828 827 827 828 829
709 705 710 712 707 706 755 733 732 736 749 769 774 808 762 750 758 751 743 748 750 751 757 762 768 774 783 791 797 803 807 812 815 818 821 824 824 825 825 825 825 825 831 835
694 685 688 695 688 703 713 724 721 725 770 838 819 794 770 759 752 745 739 744 742 750 751 761 774 773 780 788 795 801 805 809 813 815 818 820 821 823 824 824 823 824 828 830
702 701 682 682 706 700 705 725 767 774 808 831 819 799 766 729 729 730 734 732 742 740 748 758 761 770 776 784 790 798 803 807 811 814 816 818 820 821 822 821 820 820 820 825
726 738 700 685 700 709 740 772 831 845 837 811 803 804 755 719 711 716 721 725 729 734 741 751 757 765 773 781 786 792 800 805 808 811 814 816 818 820 819 817 817 816 816 814
718 720 679 681 682 692 758 784 778 823 816 815 823 763 719 711 714 717 721 726 728 731 736 746 754 763 770 777 783 788 795 801 805 808 812 815 816 817 817 817 818 817 816 813
693 718 681 682 681 684 707 746 786 795 793 840 758 743 744 730 725 718 721 726 725 729 736 746 753 762 769 775 781 785 791 797 801 804 809 811 813 815 815 815 816 818 817 814
686 700 720 688 698 705 729 735 738 788 765 816 791 735 702 716 714 715 717 719 723 729 736 742 750 758 765 772 778 784 790 794 799 801 803 806 807 809 813 814 815 815 816 817
682 697 722 724 678 674 682 694 699 732 781 767 787 751 689 699 702 704 712 714 720 728 735 740 747 754 761 768 775 782 788 791 795 797 801 805 805 808 812 814 816 817 819 820
678 700 731 742 711 675 693 684 687 703 737 748 788 743 692 696 698 701 707 714 722 729 734 740 748 755 761 767 774 780 784 787 794 798 803 805 808 813 816 818 819 819 821 821
673 687 704 742 735 685 699 691 689 749 793 766 788 732 709 705 704 700 706 714 722 730 737 742 749 757 763 769 775 780 784 790 796 800 805 809 814 816 819 821 822 823 824 825
677 699 688 686 689 695 693 692 692 728 750 787 750 717 706 699 700 698 704 713 724 733 738 743 751 761 768 773 779 783 789 794 799 804 808 812 817 820 823 824 825 827 827 828
674 703 690 696 681 695 721 708 697 691 713 770 759 728 683 688 689 700 708 716 727 734 737 745 756 765 772 778 783 788 793 798 802 807 812 816 820 823 825 827 829 830 831 831
686 694 701 715 690 729 752 717 704 678 677 702 737 716 692 694 699 703 709 716 724 730 736 748 758 767 774 780 786 792 797 801 807 812 817 821 824 825 827 829 831 832 833 835
684 690 692 710 714 755 709 688 695 681 685 671 690 694 695 685 689 696 701 712 721 726 737 749 759 768 775 781 787 793 800 805 810 815 819 822 825 827 830 832 834 835 837 838
668 681 699 713 709 696 693 686 690 695 680 656 693 692 687 683 690 700 697 705 715 724 737 748 759 768 775 780 787 794 801 807 811 816 820 824 826 828 831 833 836 838 839 840
670 664 686 695 710 720 677 661 665 662 696 649 671 690 690 685 712 706 693 700 711 724 737 747 758 767 775 783 789 795 802 807 812 816 820 824 827 830 832 835 837 839 840 842
695 690 695 689 697 683 649 639 640 699 693 654 668 677 683 693 682 682 687 697 708 723 737 747 757 767 775 783 789 795 801 807 812 816 820 824 827 829 832 835 838 840 843 845
698 702 695 684 696 705 636 638 665 651 646 648 676 677 703 679 668 673 683 695 707 722 735 747 757 767 776 783 788 794 800 806 811 815 820 824 828 831 835 837 839 841 843 845
690 675 682 676 674 643 631 634 625 628 639 641 642 650 655 660 665 670 683 694 706 720 733 746 758 768 775 780 787 792 799 804 810 815 820 824 828 831 834 837 839 841 841 842
656 651 670 674 654 646 637 628 627 628 632 630 633 642 642 651 655 667 680 694 706 720 732 744 756 766 772 779 783 790 796 802 809 815 820 824 828 832 835 837 837 839 840 841
642 646 659 662 653 645 637 634 633 631 637 630 631 647 661 651 656 665 679 692 705 718 730 741 751 760 768 775 780 785 793 799 806 812 818 823 827 830 833 834 836 838 840 841
630 639 655 658 644 649 648 634 632 635 633 624 630 637 633 642 651 662 676 692 703 716 728 739 748 755 763 772 777 780 788 795 802 809 815 819 824 828 831 833 836 840 842 843